Location: Cheching
(60.0667°N, 164.2167°W)
Time: 11:19:50
(UTC+00:00)

FENGYUN 1C DEB - Pass Details

Date: 26 September 2021
Orbit: 727 x 819 km, 99.4° (Epoch: 17 October)

Event Time Altitude Azimuth Distance (km) Brightness Sun altitude
Exits shadow 10:24:48 12° 70° (ENE) 2,134 ? -31.2°
Maximum altitude 10:27:19 17° 37° (NE) 1,847 ? -31.2°
Drops below altitude 10° 10:30:21 10° 359° (N) 2,273 ? -31.3°
Sets 10:33:26 0° 340° (NNW) 3,216 ? -31.3°
